DW7110 Weather Reports


time (UTC)temp
F
wind
direction
speed
knots
gust
knots
rain 1hr
in
rain 24hr
in
rain mn
in
humidity
%
barometer
mb
20260906083002 67 1 0.0 0.0 0.00 0.00 0.00 93 1014.1
20260906081502 68 1 0.0 0.0 0.00 0.00 0.00 94 1014.2
20260906080001 68 1 0.0 0.0 0.00 0.00 0.00 94 1014.1
20260906074502 68 1 0.0 0.0 0.00 0.00 0.00 94 1014.0
20260906073100 68 1 0.0 0.0 0.00 0.00 0.00 93 1013.9
20260906071600 67 1 0.0 0.0 0.00 0.00 0.00 93 1014.0
20260906070058 67 1 0.0 0.0 0.00 0.00 0.00 93 1014.2
20260906064558 67 1 0.0 0.0 0.00 0.00 0.00 92 1014.2
20260906063056 67 1 0.0 0.0 0.00 0.00 0.00 93 1014.1
20260906061601 68 1 0.0 0.0 0.00 0.00 0.00 92 1014.1
20260906060057 68 1 0.0 0.0 0.00 0.00 0.00 93 1014.2
20260906054549 68 1 0.0 0.0 0.00 0.00 0.00 93 1014.6
20260906053048 68 1 0.0 0.0 0.00 0.00 0.00 93 1014.8
20260906051546 68 1 0.0 0.0 0.00 0.00 0.00 92 1014.9
20260906050145 68 1 0.0 0.0 0.00 0.00 0.00 92 1015.1
20260906044545 68 1 0.0 0.0 0.00 0.00 0.00 93 1015.1
20260906043043 68 1 0.0 0.0 0.00 0.00 0.00 92 1015.0
20260906041542 68 1 0.0 0.0 0.00 0.00 0.00 91 1015.0
20260906040039 69 1 0.0 0.0 0.00 0.00 0.00 92 1015.1
20260906034538 69 1 0.0 0.0 0.00 0.00 0.00 92 1015.1
20260906033039 69 1 0.0 0.0 0.00 0.00 0.00 91 1015.2
20260906031540 69 1 0.0 0.0 0.00 0.00 0.00 91 1015.2
20260906030037 70 1 0.0 0.9 0.00 0.00 0.00 91 1015.0
20260906024539 69 1 0.0 2.6 0.00 0.00 0.00 91 1015.1
20260906023042 70 1 0.0 0.0 0.00 0.00 0.00 91 1015.1
20260906021543 70 1 0.0 0.0 0.00 0.00 0.00 91 1014.7
20260906020035 70 1 0.0 0.0 0.00 0.00 0.00 91 1014.6
20260906014541 70 1 0.0 0.0 0.00 0.00 0.00 91 1014.3
20260906013042 70 1 0.0 0.0 0.00 0.00 0.00 90 1014.4
20260906011536 71 1 0.0 0.0 0.00 0.00 0.00 90 1014.3
20260906010033 71 1 0.0 0.0 0.00 0.00 0.00 89 1014.1
20260906004534 72 1 0.0 0.0 0.00 0.00 0.00 89 1014.0
20260906003033 72 1 0.0 0.0 0.00 0.00 0.00 89 1014.1
20260906001532 72 1 0.0 0.0 0.00 0.00 0.00 89 1014.0
20260906000032 72 1 0.0 0.0 0.00 0.00 0.00 88 1013.9
20260905234531 73 1 0.0 0.0 0.00 0.00 0.00 88 1013.7
20260905233031 73 1 0.0 0.0 0.00 0.00 0.00 89 1013.7
20260905231531 74 1 0.0 0.0 0.00 0.00 0.00 89 1013.6
20260905230029 74 1 0.0 0.0 0.00 0.00 0.00 87 1013.5
20260905224531 74 1 0.0 0.0 0.00 0.00 0.00 87 1013.2
20260905223028 74 1 0.0 0.0 0.00 0.00 0.00 87 1013.2
20260905221527 74 1 0.0 0.0 0.00 0.00 0.00 87 1013.5
20260905220025 74 1 0.0 0.0 0.00 0.00 0.00 88 1013.6
20260905214525 74 1 0.0 0.0 0.00 0.00 0.00 87 1013.6
20260905213024 74 1 0.0 0.0 0.00 0.00 0.00 87 1013.7
20260905211523 74 1 0.0 0.0 0.00 0.00 0.00 86 1014.1
20260905210021 74 1 0.0 0.0 0.00 0.00 0.00 86 1014.2
20260905204520 75 1 0.0 0.0 0.00 0.01 0.00 86 1014.2
20260905203021 75 1 0.0 0.0 0.00 0.01 0.00 85 1014.5
20260905201520 75 1 0.0 0.0 0.00 0.01 0.00 84 1014.1
20260905200026 76 1 0.0 0.0 0.00 0.01 0.00 82 1014.3
20260905194519 78 1 0.0 0.0 0.00 0.01 0.00 79 1014.2
20260905193018 81 1 0.0 8.7 0.00 0.01 0.00 74 1014.1
20260905191521 83 1 0.0 0.9 0.00 0.01 0.00 70 1014.3
20260905190029 82 1 0.0 0.0 0.00 0.01 0.00 70 1014.3
20260905184522 81 1 0.0 0.0 0.00 0.01 0.00 74 1014.2
20260905183015 81 1 0.0 0.0 0.00 0.01 0.00 70 1014.2
20260905181515 81 1 0.0 0.0 0.00 0.01 0.00 70 1014.2
20260905180012 82 1 0.0 2.6 0.00 0.01 0.00 72 1014.9
20260905174510 83 1 0.0 6.1 0.00 0.01 0.00 71 1015.0
20260905173010 85 1 0.0 0.0 0.00 0.01 0.00 73 1014.9
20260905171506 85 1 0.0 0.0 0.00 0.01 0.00 76 1014.8
20260905170002 84 1 0.0 0.0 0.00 0.01 0.00 80 1014.8
20260905164600 83 1 0.0 0.0 0.00 0.01 0.00 83 1015.0
20260905163057 82 1 0.0 0.0 0.00 0.01 0.00 83 1015.5
20260905161553 81 1 0.0 0.0 0.00 0.01 0.00 85 1015.7
20260905160055 80 1 0.0 0.0 0.00 0.01 0.00 87 1015.7
20260905154548 78 1 0.0 0.0 0.00 0.01 0.00 88 1015.8
20260905153059 77 1 0.0 0.0 0.00 0.01 0.00 89 1015.9
20260905151540 76 1 0.0 0.0 0.00 0.01 0.00 89 1016.0
20260905150036 74 1 0.0 0.0 0.00 0.01 0.00 91 1016.3
20260905144532 73 1 0.0 0.0 0.00 0.01 0.00 92 1016.4
20260905143029 72 1 0.0 0.0 0.00 0.01 0.00 93 1016.4
20260905141530 71 1 0.0 0.0 0.00 0.01 0.00 93 1016.5
20260905140024 70 1 0.0 0.0 0.00 0.01 0.00 93 1016.8
20260905134522 69 1 0.0 0.0 0.00 0.01 0.00 94 1016.9
20260905133021 69 1 0.0 0.0 0.00 0.01 0.00 94 1016.9
20260905131521 68 1 0.0 0.0 0.00 0.01 0.00 94 1017.0
20260905130020 68 1 0.0 0.0 0.00 0.01 0.00 94 1017.1
20260905124523 67 1 0.0 0.0 0.00 0.01 0.00 94 1017.0
20260905123020 67 1 0.0 0.0 0.00 0.01 0.00 94 1016.7
20260905121519 67 1 0.0 0.0 0.00 0.01 0.00 93 1016.8
20260905120021 67 1 0.0 0.0 0.00 0.01 0.00 94 1016.8
20260905114518 67 1 0.0 0.0 0.00 0.01 0.00 94 1016.6
20260905113017 67 1 0.0 0.0 0.00 0.01 0.00 94 1016.2
20260905111518 67 1 0.0 0.0 0.00 0.01 0.00 93 1016.0
20260905110015 67 1 0.0 0.0 0.00 0.01 0.00 93 1015.8
20260905104514 67 1 0.0 0.0 0.00 0.01 0.00 93 1015.6
20260905103013 67 1 0.0 0.0 0.00 0.01 0.00 93 1015.6
20260905101513 67 1 0.0 0.0 0.00 0.01 0.00 93 1015.5
20260905100011 67 1 0.0 0.0 0.00 0.01 0.00 93 1015.4
20260905094510 68 1 0.0 0.0 0.00 0.01 0.00 93 1015.5
20260905093009 68 1 0.0 0.0 0.00 0.01 0.00 93 1015.5
20260905091508 68 1 0.0 0.0 0.00 0.01 0.00 93 1015.5
20260905090006 68 1 0.0 0.0 0.00 0.01 0.00 93 1015.7
20260905084505 68 1 0.0 0.0 0.00 0.01 0.00 93 1015.7